Location: Kernascl�den
(48.0062°N, 3.3198°W)
Time: 22:57:40
(UTC+00:00)

ISS - Pass Details

Date: 21 January 2021
Orbit: 417 x 422 km, 51.6° (Epoch: 04 March)

Event Time Altitude Azimuth Distance (km) Brightness Sun altitude
Rises 18:24:43 0° 226° (SW) 2,363 1.1 -14.5°
Reaches altitude 10° 18:26:52 10° 220° (SW) 1,502 -0.2 -14.9°
Maximum altitude 18:30:05 43° 147° (SSE) 607 -3.2 -15.4°
Enters shadow 18:31:03 33° 104° (ESE) 733 -3.0 -15.6°
